[[{"header":{"parameterUnit":"m.s-1","parameterCategory":1,"la1":30.2991,"la2":30.254,"lo1":-89.0895,"lo2":-89.0444,"dy":0.0017,"dx":0.0017,"nx":28,"ny":28,"refTime":"2025-01-19T03:00:00:Z","depth":0,"parameterNumber":2,"parameterNumberName":"U-component_of_WINDS"},"data":[0,0,0,0,0,0,0,0,0,0,0,0,0,0,0,0,0,0,0,0,0,0,0,0,0,0,0,0,0,0,0,0,0,0,0,0,0,0,0,0,0,0,0,0,0,0,0,0,0,0,0,0,0,0,0,0,0,0,1.6115,1.6115,0,1.6104,1.6104,1.6104,1.6073,1.6073,1.6072,1.6071,1.606,1.6061,1.6061,0,0,0,0,0,0,0,0,0,0,0,0,0,1.611,1.6111,1.6115,1.6115,1.6115,1.6104,1.6104,1.6104,1.6073,1.6073,1.6072,1.6071,1.606,1.6061,1.6061,0,0,0,0,0,0,0,0,0,0,0,0,0,1.6107,1.6111,1.6115,1.6098,1.6097,1.6104,1.6104,1.6104,1.6074,1.6073,1.6072,1.6071,1.606,1.6061,1.6061,1.6084,0,0,1.6063,1.6063,0,0,0,0,0,0,0,0,1.6108,1.6108,1.6101,1.61,1.6098,1.6089,1.6098,1.6097,1.6074,1.6082,1.6071,1.607,1.6071,1.607,1.607,1.6084,1.6083,1.6063,1.6063,1.6063,1.6063,0,0,0,0,0,0,0,1.6108,1.6108,1.6111,1.6101,1.6099,1.6092,1.609,1.6098,1.6082,1.6082,1.6079,1.6078,1.607,1.607,1.607,1.6083,1.6063,1.6063,1.6063,1.6064,1.6116,1.6117,0,0,0,0,0,0,1.611,1.6108,1.6111,1.6111,1.61,1.6093,1.6091,1.6093,1.6082,1.608,1.6079,1.6077,1.607,1.6069,1.6069,1.6097,1.6063,1.6064,1.6064,1.6115,1.6116,1.6118,0,0,0,0,0,0,1.611,1.6111,1.6112,1.6109,1.6108,1.6094,1.6096,1.6093,1.6094,1.608,1.6078,1.6083,1.6069,1.6069,1.6081,1.6096,1.6064,1.6064,1.6114,1.6115,1.6117,1.6152,0,0,0,0,0,0,1.611,1.6111,1.612,1.6109,1.6109,1.6124,1.6097,1.6094,1.6095,1.6092,1.6083,1.608,1.6068,1.608,1.6082,1.6096,1.6065,1.6112,1.6114,1.6116,1.6149,1.6154,1.6159,0,0,0,0,0,1.611,1.613,1.612,1.6121,1.6119,1.6124,1.6124,1.611,1.6096,1.6105,1.6096,1.6081,1.6094,1.6082,1.6083,1.6098,1.6111,1.6114,1.6116,1.6147,1.6153,1.6158,0,0,0,0,0,0,1.6142,1.6128,1.6117,1.6134,1.6131,1.6119,1.613,1.6116,1.6117,1.6114,1.6096,1.6094,1.611,1.6105,1.6092,1.612,1.61,1.6103,1.6123,1.6129,1.6134,1.6135,1.6065,0,0,0,0,0,1.6151,1.6156,1.6144,1.6159,1.6158,1.6144,1.6146,1.6135,1.6131,1.613,1.6122,1.6119,1.6123,1.6125,1.6128,1.6148,1.6146,1.6159,1.6163,1.6167,1.617,1.6182,1.6187,1.6126,1.6126,1.6126,0,0,1.6169,1.6162,1.6167,1.6166,1.6162,1.6168,1.6143,1.6151,1.6156,1.6131,1.6142,1.6137,1.6132,1.6149,1.6156,1.6145,1.6187,1.6171,1.6174,1.6175,1.6185,1.6191,1.6196,1.6127,1.6127,1.6127,0,0,1.6206,1.6201,1.6214,1.6211,1.6206,1.6197,1.62,1.6191,1.6186,1.6197,1.6179,1.6184,1.6191,1.6188,1.6188,1.6225,1.6211,1.6226,1.6252,1.6263,1.6268,1.6272,1.6286,1.6292,1.6229,1.6229,1.6229,0,1.623,1.6239,1.6223,1.6232,1.6232,1.621,1.6224,1.6221,1.6217,1.6218,1.6207,1.6215,1.621,1.6226,1.6235,1.6235,1.6239,1.6228,1.6268,1.6273,1.6276,1.629,1.6295,1.6231,1.6231,1.6231,1.6231,0,1.6269,1.6275,1.6286,1.6284,1.6285,1.6296,1.6282,1.6286,1.6275,1.6267,1.6279,1.6273,1.6274,1.6277,1.6266,1.6292,1.6286,1.6272,1.6251,1.6284,1.6297,1.6302,1.6234,1.6233,1.6233,1.6232,0,0,1.6325,1.6314,1.6318,1.6317,1.631,1.6315,1.6326,1.6327,1.6331,1.6329,1.6338,1.6344,1.6331,1.6331,1.6319,1.6329,1.636,1.6314,1.6313,1.6323,1.639,1.6401,1.6407,1.6351,1.6352,1.6352,1.639,0,1.6361,1.6379,1.6365,1.6385,1.6392,1.6371,1.638,1.6377,1.637,1.6375,1.6367,1.6372,1.6354,1.6354,1.6362,1.6355,1.6374,1.6352,1.636,1.636,1.6362,1.6414,1.6426,1.6462,1.6395,1.6396,1.6396,0,1.6405,1.6406,1.6427,1.642,1.6422,1.643,1.6431,1.6436,1.6432,1.6426,1.6426,1.6413,1.6423,1.6402,1.6417,1.6402,1.6405,1.6402,1.6403,1.6403,1.6381,1.6417,1.6473,1.6479,1.6404,1.6403,1.6403,0,1.6446,1.6452,1.6466,1.6465,1.6456,1.6463,1.646,1.6455,1.6457,1.6458,1.6459,1.6461,1.6462,1.6464,1.6451,1.6437,1.6468,1.6446,1.6464,1.6464,1.6472,1.6472,1.653,1.6472,1.6472,1.6472,1.6472,0,1.6488,1.6502,1.6484,1.6492,1.6508,1.6492,1.6507,1.6502,1.6498,1.6505,1.6487,1.6495,1.6477,1.6483,1.6473,1.6487,1.6487,1.6484,1.6481,1.6486,1.6486,1.6488,1.6485,1.6473,1.6473,1.6473,1.6472,0,1.6536,1.6524,1.6538,1.6529,1.6527,1.6539,1.6531,1.6539,1.6531,1.6541,1.6542,1.6529,1.6535,1.6523,1.6527,1.652,1.654,1.6533,1.6542,1.654,1.6559,1.6558,1.6621,1.6629,1.6565,1.6566,1.6566,0,1.6564,1.6574,1.6567,1.6571,1.6568,1.6575,1.6577,1.6562,1.6565,1.6562,1.657,1.6575,1.6577,1.6588,1.6579,1.6582,1.6576,1.6598,1.6576,1.6581,1.6577,1.6577,1.6579,1.6602,1.6603,1.6604,1.6604,0,1.6615,1.6609,1.6613,1.6616,1.6619,1.662,1.6619,1.6624,1.6608,1.6612,1.6618,1.662,1.6625,1.663,1.6631,1.6628,1.6614,1.6611,1.6616,1.6621,1.6626,1.6625,1.6555,1.661,1.6609,1.6609,1.6609,1.6608,1.6655,1.6663,1.666,1.6665,1.6663,1.6664,1.6671,1.6664,1.6669,1.6671,1.6662,1.6671,1.6667,1.6668,1.6666,1.6673,1.6663,1.6669,1.6671,1.6673,1.6676,1.6624,1.6673,1.6672,1.6672,1.6672,1.6672,0,1.6706,1.6702,1.6708,1.6708,1.6713,1.6699,1.6698,1.6703,1.6711,1.6709,1.6712,1.672,1.6724,1.6716,1.672,1.6727,1.6721,1.6729,1.6728,1.6728,1.6684,1.6681,1.6734,1.6734,1.6734,1.6734,1.6734,1.6734,1.6733,1.6747,1.6741,1.6755,1.6751,1.676,1.6761,1.6761,1.676,1.6769,1.6773,1.6768,1.6764,1.6767,1.6771,1.6769,1.6771,1.6782,1.6777,1.6737,1.6731,1.6725,1.6722,1.6782,1.6782,1.682,1.682,1.6821]},{"header":{"parameterUnit":"m.s-1","parameterCategory":1,"la1":30.2991,"la2":30.254,"lo1":-89.0895,"lo2":-89.0444,"dy":0.0017,"dx":0.0017,"nx":28,"ny":28,"refTime":"2025-01-19T03:00:00:Z","depth":0,"parameterNumber":3,"parameterNumberName":"V-component_of_WINDS"},"data":[0,0,0,0,0,0,0,0,0,0,0,0,0,0,0,0,0,0,0,0,0,0,0,0,0,0,0,0,0,0,0,0,0,0,0,0,0,0,0,0,0,0,0,0,0,0,0,0,0,0,0,0,0,0,0,0,0,0,3.6872,3.6872,0,3.6909,3.691,3.691,3.6879,3.6878,3.6877,3.6876,3.6909,3.6911,3.6914,0,0,0,0,0,0,0,0,0,0,0,0,0,3.677,3.6772,3.6872,3.6872,3.6873,3.6909,3.691,3.691,3.688,3.6878,3.6876,3.6875,3.6909,3.6911,3.6914,0,0,0,0,0,0,0,0,0,0,0,0,0,3.6812,3.6773,3.6872,3.6862,3.6862,3.6909,3.691,3.691,3.688,3.6878,3.6876,3.6874,3.6908,3.6911,3.6914,3.6972,0,0,3.6924,3.6925,0,0,0,0,0,0,0,0,3.6809,3.6815,3.6863,3.6863,3.6862,3.6888,3.6886,3.6931,3.688,3.6873,3.6876,3.6873,3.6904,3.6907,3.6918,3.6973,3.6975,3.6924,3.6926,3.6927,3.6928,0,0,0,0,0,0,0,3.6806,3.6814,3.6887,3.6864,3.6863,3.6855,3.6858,3.6894,3.6898,3.6873,3.6871,3.6876,3.6903,3.6915,3.6918,3.6975,3.6924,3.6927,3.6929,3.693,3.7081,3.7083,0,0,0,0,0,0,3.6805,3.6811,3.6885,3.6888,3.6831,3.6858,3.6862,3.6881,3.6898,3.6899,3.6878,3.6875,3.6911,3.6915,3.692,3.6989,3.6927,3.693,3.6932,3.7078,3.7081,3.7083,0,0,0,0,0,0,3.6803,3.6812,3.6884,3.6849,3.6857,3.6862,3.6884,3.6883,3.6895,3.6901,3.6901,3.689,3.6909,3.6915,3.696,3.699,3.6932,3.6934,3.7076,3.7079,3.7082,3.7128,0,0,0,0,0,0,3.68,3.6812,3.6834,3.685,3.686,3.6925,3.6886,3.6885,3.6901,3.6898,3.6913,3.6913,3.6908,3.6955,3.6963,3.6993,3.6937,3.7073,3.7077,3.7081,3.7124,3.7133,3.714,0,0,0,0,0,3.6797,3.6845,3.6836,3.6845,3.6889,3.6926,3.6932,3.6926,3.6904,3.6927,3.693,3.6913,3.6985,3.696,3.6968,3.7,3.7071,3.7076,3.7081,3.7121,3.7131,3.714,0,0,0,0,0,0,3.6831,3.6847,3.6837,3.6892,3.6908,3.6921,3.695,3.6937,3.6959,3.6955,3.6946,3.6949,3.6996,3.7002,3.6974,3.7057,3.7024,3.7031,3.7052,3.7062,3.707,3.7068,3.6939,0,0,0,0,0,3.6845,3.6876,3.6887,3.6935,3.6944,3.6945,3.6961,3.6956,3.6972,3.6979,3.6986,3.7001,3.7027,3.7044,3.7069,3.7124,3.7128,3.715,3.7158,3.7165,3.7171,3.7202,3.7213,3.7099,3.7099,3.7099,0,0,3.6875,3.6887,3.6907,3.6942,3.6954,3.6985,3.6951,3.6985,3.7008,3.6983,3.7027,3.7032,3.7048,3.7099,3.7122,3.7105,3.7203,3.7171,3.7176,3.7179,3.7208,3.7219,3.7228,3.7102,3.7102,3.7101,0,0,3.6944,3.6956,3.6998,3.7011,3.7031,3.7032,3.7041,3.7057,3.706,3.7104,3.7086,3.7112,3.7157,3.717,3.7182,3.7257,3.7242,3.7265,3.7307,3.7337,3.7346,3.7354,3.7382,3.7392,3.7271,3.7271,3.7271,0,3.6978,3.7026,3.702,3.7057,3.7073,3.7053,3.7094,3.7106,3.7132,3.7143,3.7125,3.7182,3.7191,3.7245,3.7264,3.7274,3.7285,3.7264,3.7345,3.7353,3.736,3.7387,3.7397,3.7274,3.7273,3.7273,3.7273,0,3.7066,3.71,3.7131,3.7159,3.7178,3.7216,3.7215,3.7235,3.7228,3.723,3.7275,3.7285,3.7312,3.7324,3.7316,3.7377,3.7367,3.7347,3.7314,3.7374,3.7399,3.7409,3.7278,3.7277,3.7276,3.7275,0,0,3.7159,3.7184,3.7196,3.7209,3.7229,3.7254,3.7291,3.7319,3.7337,3.7354,3.7386,3.7425,3.7407,3.7421,3.7414,3.7441,3.7501,3.7418,3.7418,3.7434,3.7569,3.7585,3.7597,3.749,3.7492,3.7494,3.7569,0,3.7231,3.7298,3.7294,3.7357,3.7388,3.7369,3.7402,3.7417,3.742,3.7446,3.7448,3.7477,3.7451,3.746,3.7485,3.7488,3.7528,3.7483,3.7519,3.752,3.7517,3.761,3.7627,3.7697,3.7578,3.758,3.7581,0,3.7324,3.7348,3.7414,3.7431,3.7444,3.7473,3.7499,3.7524,3.754,3.7541,3.7557,3.7546,3.7583,3.7548,3.7599,3.7568,3.7582,3.7586,3.7589,3.7593,3.7555,3.7618,3.7719,3.773,3.7596,3.7595,3.7593,0,3.7387,3.7435,3.7481,3.7492,3.7513,3.7534,3.7543,3.7558,3.7575,3.7597,3.7608,3.7633,3.7647,3.7666,3.7662,3.7637,3.7713,3.7678,3.7715,3.7715,3.7733,3.7732,3.7839,3.774,3.774,3.7739,3.7739,0,3.7468,3.751,3.751,3.7539,3.7585,3.7579,3.7624,3.763,3.7644,3.7673,3.7657,3.7684,3.7676,3.7703,3.7699,3.7742,3.7748,3.7749,3.7748,3.7752,3.7752,3.7762,3.7758,3.7742,3.7742,3.7741,3.7741,0,3.7547,3.7549,3.7598,3.7614,3.7619,3.7652,3.7664,3.7691,3.7693,3.773,3.7738,3.774,3.7771,3.7769,3.7802,3.78,3.7853,3.7845,3.7849,3.7847,3.7885,3.7882,3.8003,3.8019,3.7908,3.7909,3.791,0,3.7599,3.7631,3.7651,3.767,3.7681,3.7712,3.773,3.7725,3.7744,3.7766,3.779,3.7819,3.7843,3.7892,3.7896,3.7922,3.7915,3.7956,3.7919,3.7922,3.7918,3.7917,3.792,3.7964,3.7965,3.7966,3.7967,0,3.7693,3.7692,3.772,3.7749,3.7771,3.7793,3.7812,3.7828,3.7825,3.7847,3.7879,3.7898,3.7933,3.7962,3.7987,3.7994,3.7981,3.7978,3.7988,3.7993,3.7994,3.7996,3.787,3.7976,3.7975,3.7974,3.7974,3.7973,3.7761,3.7789,3.7808,3.7839,3.7854,3.7873,3.7899,3.7905,3.7932,3.7962,3.7957,3.7993,3.8008,3.804,3.8051,3.8078,3.8063,3.8077,3.8081,3.8085,3.8091,3.7989,3.8082,3.8082,3.8082,3.8081,3.8081,0,3.7855,3.7866,3.7895,3.7925,3.7949,3.7935,3.7956,3.7977,3.801,3.8027,3.805,3.8087,3.8116,3.8123,3.815,3.8171,3.8165,3.8178,3.8177,3.8179,3.8101,3.8091,3.8182,3.8182,3.8182,3.8182,3.8182,3.8182,3.7907,3.7954,3.7956,3.801,3.8021,3.8058,3.8071,3.8088,3.8102,3.8145,3.8169,3.8174,3.8186,3.8215,3.824,3.8241,3.8252,3.8269,3.8267,3.8195,3.8185,3.8175,3.8165,3.8271,3.8271,3.8343,3.8344,3.8344]}]]